Winfield, KS

4:47 PM CDT on October 17, 2017 (GMT -0500)
Strother

Weather History for KWLD - November, 2012

Change the Weather History Date:

Sunday, November 25, 2012

  Actual Average Record
Temperature  
Mean Temperature 48 °F -  
Max Temperature 61 °F 52 °F 69 °F (2006)
Min Temperature 36 °F 32 °F 21 °F (1996)
Degree Days  
Heating Degree Days 16    
Moisture  
Dew Point 28 °F    
Average Humidity 47    
Maximum Humidity 62    
Minimum Humidity 31    
Precipitation  
Precipitation 0.00 in - - ()
Sea Level Pressure  
Sea Level Pressure 29.91 in    
Wind  
Wind Speed 5 mph (ESE)    
Max Wind Speed 9 mph    
Max Gust Speed -    
Visibility 10 miles    
Events      
Averages and records for this station are not official NWS values.
T = Trace of Precipitation, MM = Missing Value Source: NWS Daily Summary

Daily Weather History Graph

Daily Weather History Graph

Search for Another Location

Airport or City:

Trip Planner

Search our weather history database for the weather conditions in past years. The results will help you decide how hot, cold, wet, or windy it might be!

Date:

Astronomy

Nov. 25, 2012 Rise Set
Actual Time 7:17 AM CST 5:12 PM CST
Civil Twilight 6:49 AM CST 5:40 PM CST
Nautical Twilight 6:17 AM CST 6:12 PM CST
Astronomical Twilight 5:46 AM CST 6:44 PM CST
Moon 3:28 PM CST (11/25) 4:35 AM CST (11/25)
Length of Visible Light 10h 51m
Length of Day
9h 54m
Waxing Gibbous, 93% of the Moon is Illuminated
Nov 25
Waxing Gibbous
Nov 28
Full
Dec 6
Last Quarter
Dec 13
New
Dec 19
First Quarter

Hourly Weather History & Observations

Time (CST) Temp. Windchill Dew Point Humidity Pressure Visibility Wind Dir Wind Speed Gust Speed Precip Events Conditions
12:54 AM 44.1 °F 40.1 °F 23.0 °F 43% 29.95 in 10.0 mi South 6.9 mph - N/A   Clear
1:54 AM 43.0 °F 38.2 °F 23.0 °F 45% 29.93 in 10.0 mi SSW 8.1 mph - N/A   Clear
2:54 AM 41.0 °F 36.4 °F 23.0 °F 49% 29.91 in 10.0 mi SSW 6.9 mph - N/A   Clear
3:54 AM 39.0 °F - 23.0 °F 53% 29.91 in 10.0 mi Calm Calm - N/A   Clear
4:54 AM 36.0 °F 30.3 °F 24.1 °F 62% 29.91 in 10.0 mi SSE 6.9 mph - N/A   Clear
5:54 AM 37.0 °F 33.3 °F 24.1 °F 59% 29.91 in 10.0 mi SSE 4.6 mph - N/A   Clear
6:54 AM 37.0 °F 34.5 °F 24.1 °F 59% 29.92 in 10.0 mi SE 3.5 mph - N/A   Clear
7:54 AM 37.9 °F - 25.0 °F 60% 29.93 in 10.0 mi Calm Calm - N/A   Clear
8:54 AM 45.0 °F 42.6 °F 28.0 °F 52% 29.93 in 10.0 mi South 4.6 mph - N/A   Clear
9:54 AM 50.0 °F - 27.0 °F 41% 29.94 in 10.0 mi SSW 6.9 mph - N/A   Clear
10:54 AM 53.1 °F - 28.9 °F 40% 29.92 in 10.0 mi Calm Calm - N/A   Clear
11:54 AM 55.9 °F - 28.9 °F 36% 29.90 in 10.0 mi Calm Calm - N/A   Clear
12:54 PM 57.9 °F - 30.0 °F 35% 29.88 in 10.0 mi East 3.5 mph - N/A   Clear
1:54 PM 60.1 °F - 30.0 °F 32% 29.86 in 10.0 mi Variable 4.6 mph - N/A   Clear
2:54 PM 61.0 °F - 30.0 °F 31% 29.85 in 10.0 mi Variable 5.8 mph - N/A   Clear
3:54 PM 61.0 °F - 30.0 °F 31% 29.86 in 10.0 mi East 5.8 mph - N/A   Clear
4:54 PM 57.0 °F - 30.9 °F 37% 29.88 in 10.0 mi NE 4.6 mph - N/A   Clear
5:54 PM 54.0 °F - 30.0 °F 40% 29.90 in 10.0 mi ENE 3.5 mph - N/A   Clear
6:54 PM 50.0 °F - 30.0 °F 46% 29.92 in 10.0 mi ENE 5.8 mph - N/A   Clear
7:54 PM 48.0 °F - 30.0 °F 50% 29.92 in 10.0 mi ENE 5.8 mph - N/A   Clear
8:54 PM 46.0 °F 43.1 °F 30.0 °F 54% 29.93 in 10.0 mi ENE 5.8 mph - N/A   Clear
9:54 PM 46.0 °F 43.1 °F 30.0 °F 54% 29.94 in 10.0 mi East 5.8 mph - N/A   Clear
10:54 PM 46.9 °F - 30.9 °F 54% 29.94 in 10.0 mi ENE 9.2 mph - N/A   Clear
11:54 PM 46.0 °F 41.4 °F 30.9 °F 56% 29.94 in 10.0 mi ENE 9.2 mph - N/A   Clear